Observations for Trim Market St
| Time | AQI | Temp °C | Hum % | Pres Pa | CO μg/m³ | H₂S μg/m³ | NO μg/m³ | NO₂ μg/m³ | O₃ μg/m³ | SO₂ μg/m³ | PM1 μg/m³ | PM2.5 μg/m³ | PM10 μg/m³ |
|---|---|---|---|---|---|---|---|---|---|---|---|---|---|
| Tuesday 18 August 2026 | |||||||||||||
| 20:36 | 2 | 16.1 | 80 | 2,147,483,647 | 0.22 | 0 | 2.15 | 14.69 | 61.81 | 0 | 2.85 | 4.01 | 7.53 |
| 20:35 | 2 | 16.2 | 80 | 2,147,483,647 | 0.22 | 0 | 2.13 | 14.38 | 58.95 | 0 | 3.56 | 4.49 | 8.1 |
| 20:34 | 2 | 16.2 | 80 | 2,147,483,647 | 0.22 | 0 | 2.13 | 12.74 | 61.23 | 0 | 2.14 | 4.02 | 8.1 |
| 20:33 | 2 | 16.2 | 80 | 2,147,483,647 | 0.25 | 0 | 2.13 | 13.25 | 57.15 | 0 | 4.28 | 4.96 | 8.67 |
| 20:32 | 2 | 16.2 | 80 | 2,147,483,647 | 0.23 | 0 | 2.14 | 12.09 | 61.28 | 0 | 1.43 | 3.55 | 6.39 |
| 20:31 | 2 | 16.2 | 80 | 2,147,483,647 | 0.22 | 0 | 2.13 | 11.82 | 61.47 | 0 | 2.85 | 4.02 | 7.53 |
| 20:30 | 2 | 16.2 | 80 | 2,147,483,647 | 0.25 | 0 | 2.13 | 13.95 | 58.57 | 0 | 2.14 | 3.55 | 7.53 |
| 20:28 | 2 | 16.3 | 80 | 2,147,483,647 | 0.19 | 0 | 2.11 | 13.42 | 62 | 0 | 1.43 | 3.55 | 8.67 |
| 20:27 | 2 | 16.3 | 79 | 2,147,483,647 | 0.23 | 0 | 2.13 | 26.5 | 59.29 | 0 | 2.14 | 3.08 | 5.82 |
| 20:25 | 2 | 16.3 | 79 | 2,147,483,647 | 0.25 | 0 | 2.14 | 16.47 | 59.11 | 0 | 2.14 | 3.09 | 6.39 |
| 20:19 | 2 | 16.4 | 79 | 2,147,483,647 | 0.24 | 0 | 2.09 | 22.21 | 57.39 | 0 | 2.14 | 3.1 | 7.53 |
| 20:17 | 2 | 16.4 | 79 | 2,147,483,647 | 0.41 | 0 | 2.09 | 19.8 | 58.95 | 0 | 1.43 | 3.11 | 6.38 |
| 20:15 | 2 | 16.4 | 79 | 2,147,483,647 | 0.24 | 0 | 2.1 | 22.12 | 59.41 | 0 | 2.14 | 3.59 | 7.53 |
| 20:12 | 2 | 16.5 | 78 | 2,147,483,647 | 0.2 | 0 | 2.07 | 30.17 | 54.53 | 0 | 2.85 | 4.55 | 7.53 |
| 20:06 | 2 | 16.5 | 78 | 2,147,483,647 | 0.2 | 0 | 2.07 | 21.17 | 59.33 | 0 | 2.14 | 4.58 | 8.69 |
| 20:05 | 2 | 16.6 | 78 | 2,147,483,647 | 0.22 | 0 | 2.05 | 20.84 | 60.82 | 0 | 3.56 | 5.06 | 9.27 |
| 20:04 | 2 | 16.6 | 78 | 2,147,483,647 | 0.25 | 0 | 2.05 | 23.64 | 62.23 | 0 | 3.56 | 5.06 | 9.85 |
| 20:03 | 2 | 16.6 | 78 | 2,147,483,647 | 0.25 | 0 | 2.06 | 20.19 | 63.72 | 0 | 2.85 | 3.64 | 6.95 |
| 20:02 | 2 | 16.6 | 78 | 2,147,483,647 | 0.29 | 0 | 2.05 | 26.09 | 58.37 | 0 | 2.14 | 4.6 | 7.53 |
| 20:01 | 2 | 16.6 | 78 | 2,147,483,647 | 0.45 | 0.92 | 2.05 | 38.46 | 49.58 | 0 | 2.14 | 3.18 | 5.78 |